Time,TemperatureF,DewpointF,PressureIn,WindDirection,WindDirectionDegrees,WindSpeedMPH,WindSpeedGustMPH,Humidity,HourlyPrecipIn,Conditions,Clouds,dailyrainin,SoftwareType,DateUTC
2013-06-15 07:52:00,73.0,66.0,30.01,ESE,111,0.0,1.0,80,0.00,,,0.00,,2013-06-15 12:52:00,
2013-06-15 08:02:00,73.0,66.0,30.01,ESE,111,0.0,1.0,80,0.00,,,0.00,,2013-06-15 13:02:00,
2013-06-15 08:11:00,73.0,66.0,30.01,ESE,111,0.0,1.0,80,0.00,,,0.00,,2013-06-15 13:11:00,
2013-06-15 08:22:00,74.0,67.0,30.01,SE,128,0.0,1.0,79,0.00,,,0.00,,2013-06-15 13:22:00,
2013-06-15 08:32:00,74.0,67.0,30.01,SE,128,0.0,1.0,79,0.00,,,0.00,,2013-06-15 13:32:00,
2013-06-15 08:44:00,74.0,67.0,30.01,SE,128,0.0,1.0,79,0.00,,,0.00,,2013-06-15 13:44:00,
2013-06-15 08:53:00,76.0,65.0,30.01,East,96,2.0,3.0,69,0.00,,,0.00,,2013-06-15 13:53:00,
2013-06-15 09:01:00,76.0,65.0,30.01,East,96,2.0,3.0,69,0.00,,,0.00,,2013-06-15 14:01:00,
2013-06-15 09:12:00,76.0,65.0,30.01,East,96,2.0,3.0,69,0.00,,,0.00,,2013-06-15 14:12:00,
2013-06-15 09:22:00,79.0,65.0,30.01,North,351,1.0,4.0,62,0.00,,,0.00,,2013-06-15 14:22:00,
2013-06-15 09:34:00,79.0,65.0,30.01,North,351,1.0,4.0,62,0.00,,,0.00,,2013-06-15 14:34:00,
2013-06-15 09:43:00,79.0,65.0,30.01,North,351,1.0,4.0,62,0.00,,,0.00,,2013-06-15 14:43:00,
2013-06-15 09:54:00,79.0,65.0,30.01,North,351,1.0,4.0,62,0.00,,,0.00,,2013-06-15 14:54:00,
2013-06-15 10:02:00,79.0,65.0,30.01,North,351,1.0,4.0,62,0.00,,,0.00,,2013-06-15 15:02:00,
2013-06-15 10:53:00,86.0,69.0,30.01,West,270,1.0,3.0,57,0.00,,,0.00,,2013-06-15 15:53:00,
2013-06-15 11:01:00,86.0,69.0,30.01,West,270,1.0,3.0,57,0.00,,,0.00,,2013-06-15 16:01:00,
2013-06-15 11:11:00,86.0,69.0,30.01,West,270,1.0,3.0,57,0.00,,,0.00,,2013-06-15 16:11:00,
2013-06-15 11:22:00,83.0,69.0,30.01,East,84,1.0,3.0,63,0.00,,,0.00,,2013-06-15 16:22:00,
2013-06-15 11:33:00,83.0,69.0,30.01,East,84,1.0,3.0,63,0.00,,,0.00,,2013-06-15 16:33:00,
2013-06-15 11:43:00,83.0,69.0,30.01,East,84,1.0,3.0,63,0.00,,,0.00,,2013-06-15 16:43:00,
2013-06-15 11:53:00,85.0,71.0,30.01,SE,131,2.0,4.0,63,0.00,,,0.00,,2013-06-15 16:53:00,
2013-06-15 12:02:00,85.0,71.0,30.01,SE,131,2.0,4.0,63,0.00,,,0.00,,2013-06-15 17:02:00,
2013-06-15 12:12:00,85.0,71.0,30.01,SE,131,2.0,4.0,63,0.00,,,0.00,,2013-06-15 17:12:00,
2013-06-15 12:22:00,83.0,70.0,30.00,East,94,3.0,6.0,66,0.00,,,0.00,,2013-06-15 17:22:00,
2013-06-15 12:32:00,83.0,70.0,30.00,East,94,3.0,6.0,66,0.00,,,0.00,,2013-06-15 17:32:00,
2013-06-15 12:43:00,83.0,70.0,30.00,East,94,3.0,6.0,66,0.00,,,0.00,,2013-06-15 17:43:00,
2013-06-15 12:52:00,80.0,70.0,30.00,ENE,65,1.0,3.0,72,0.00,,,0.00,,2013-06-15 17:52:00,
2013-06-15 13:01:00,80.0,70.0,30.00,ENE,65,1.0,3.0,72,0.00,,,0.00,,2013-06-15 18:01:00,
2013-06-15 13:12:00,80.0,70.0,30.00,ENE,65,1.0,3.0,72,0.00,,,0.00,,2013-06-15 18:12:00,
2013-06-15 13:22:00,78.0,71.0,29.99,NNW,333,3.0,7.0,78,0.00,,,0.00,,2013-06-15 18:22:00,
2013-06-15 13:32:00,78.0,71.0,29.99,NNW,333,3.0,7.0,78,0.00,,,0.00,,2013-06-15 18:32:00,
2013-06-15 13:43:00,78.0,71.0,29.99,NNW,333,3.0,7.0,78,0.00,,,0.00,,2013-06-15 18:43:00,
2013-06-15 13:53:00,78.0,71.0,29.99,NNW,333,3.0,7.0,78,0.00,,,0.00,,2013-06-15 18:53:00,
2013-06-15 14:01:00,78.0,71.0,29.99,NNW,333,3.0,7.0,78,0.00,,,0.00,,2013-06-15 19:01:00,